Wind_Speed
29 26 24 22 19 22 18 27 28 26 21 17 17 17 22 25 24 23 22 22 20 19 18 15 16 15 15 13 13 7 7 5 3 1 3 12 19 16 16 19 19 22 20 19
27 26 23 21 24 24 24 24 23 20 20 17 14 15 20 26 26 25 25 23 21 22 20 18 16 16 17 13 14 16 12 12 11 9 9 7 7 11 17 21 21 21 24 24
25 22 19 17 17 21 21 21 13 23 19 14 10 13 19 26 28 27 28 23 22 24 22 18 16 18 17 15 16 16 15 17 16 16 17 11 13 10 11 15 17 18 21 26
23 20 20 17 15 17 16 21 23 23 19 13 18 12 21 28 29 28 29 27 26 24 22 21 17 18 19 19 17 18 13 19 20 18 17 15 10 7 9 13 18 22 18 20
22 22 21 18 15 17 15 20 20 22 21 19 24 19 38 25 30 30 29 29 28 24 23 21 22 18 20 23 20 20 19 19 18 16 18 16 13 12 10 8 14 13 21 21
23 22 20 17 17 18 22 19 21 24 24 27 28 29 31 30 32 30 29 29 30 26 25 24 25 22 22 23 23 23 22 21 22 23 24 21 16 14 12 13 7 9 17 19
23 23 20 16 18 20 21 20 21 21 24 24 30 35 30 33 27 29 29 30 30 30 29 28 27 27 27 25 26 26 25 27 26 25 25 25 22 21 21 19 14 11 12 17
25 23 17 16 21 20 21 21 19 22 24 22 37 35 31 35 32 30 31 32 32 31 31 30 29 28 28 27 28 30 30 31 30 30 31 30 29 26 19 15 17 15 13 14
26 23 18 20 21 21 21 23 22 28 29 27 35 33 30 37 34 31 32 33 33 32 31 30 30 31 32 30 29 32 33 35 35 36 34 35 34 31 26 20 18 24 18 19
27 25 23 23 23 21 22 22 25 29 32 31 32 32 36 34 39 31 31 33 34 34 34 34 33 34 34 33 32 33 35 39 41 41 41 42 41 38 34 33 24 25 24 18
31 29 27 29 29 26 23 21 22 25 26 27 30 30 25 35 33 36 34 33 35 36 37 37 38 39 39 40 40 40 41 41 44 44 47 48 46 45 41 41 37 38 36 25
36 33 31 32 33 30 26 22 20 20 22 23 26 26 29 31 33 33 35 36 36 37 40 41 42 43 44 45 46 47 48 48 49 49 52 53 55 51 50 46 43 44 42 39
38 38 36 34 35 33 30 26 25 24 22 22 23 27 27 29 31 30 33 34 35 36 38 38 40 42 44 44 46 46 47 49 51 52 53 55 56 57 56 53 49 53 49 49
40 39 38 36 36 36 35 35 30 28 27 26 25 11 36 34 35 35 35 35 34 35 37 37 39 40 42 44 45 45 46 47 47 48 49 50 50 50 54 56 56 55 58 57
42 40 41 41 38 40 39 37 36 33 32 31 33 34 34 36 37 37 37 36 37 37 36 36 37 40 43 45 45 47 46 45 46 47 49 49 50 50 47 48 47 51 56 60
44 45 45 44 43 43 43 42 42 39 37 33 36 36 34 33 38 37 37 38 38 38 36 33 35 38 39 41 44 41 40 40 43 43 43 46 46 45 48 49 50 48 50 59
47 48 48 48 47 45 44 45 43 40 40 37 37 31 34 32 34 35 37 38 37 36 36 35 36 37 37 37 37 38 39 41 44 47 48 48 49 49 44 48 51 50 50 58
50 49 50 51 49 46 47 46 42 41 40 41 39 33 35 33 33 34 36 37 38 39 39 40 36 35 38 36 39 39 40 41 44 49 50 51 51 53 54 51 49 57 58 60
51 52 52 50 49 51 45 46 43 43 45 40 40 34 35 36 35 36 36 37 39 42 41 39 40 41 43 44 44 46 47 51 56 60 58 57 59 61 61 59 59 57 55 65
51 52 50 48 48 47 46 46 48 44 46 37 45 34 39 37 40 37 38 37 38 40 40 42 45 47 51 53 56 57 60 65 66 66 67 66 68 67 68 68 69 67 67 65
53 52 47 44 37 49 41 25 43 50 46 41 45 41 40 38 38 34 34 35 34 35 36 39 45 51 55 56 58 58 63 64 64 64 64 66 68 63 62 61 60 63 68 68
56 55 49 46 44 48 32 43 59 54 45 43 43 41 39 38 37 35 34 35 38 40 42 44 47 48 53 59 61 64 62 61 61 60 59 60 61 61 60 60 60 61 62 63
66 60 55 45 45 37 26 46 42 42 44 43 42 41 39 38 38 37 35 38 41 39 42 47 49 54 56 49 49 51 54 57 60 63 65 65 64 63 62 61 60 61 61 61
65 59 55 48 43 39 54 55 55 57 48 46 44 41 37 35 36 36 38 41 40 45 47 48 51 47 48 53 56 58 62 64 67 68 68 66 64 62 60 59 59 59 59 60
64 56 55 50 45 54 53 52 56 54 51 49 43 40 37 33 33 35 39 41 43 45 46 43 47 51 56 60 63 65 66 64 62 59 58 57 56 55 56 56 57 59 60 62
55 56 56 54 50 50 54 54 52 49 46 45 44 39 32 31 34 36 39 41 44 42 44 48 53 56 58 61 62 60 57 55 53 52 52 52 53 52 53 55 57 59 60 60
Wind_Direction
280 276 274 276 269 268 234 270 265 265 269 266 267 254 227 229 226 228 232 235 241 245 242 239 242 253 261 251 256 251 300 296 292 295 213 217 229 238 242 246 253 253 251 256
272 273 272 270 266 261 254 255 259 259 261 259 260 258 239 233 233 240 244 244 251 252 241 237 241 250 259 262 265 255 257 275 285 300 291 315 281 257 245 250 263 258 254 252
264 262 260 266 269 258 253 246 221 248 249 254 266 281 269 247 243 247 253 254 256 257 255 249 253 263 270 280 284 276 265 264 275 287 291 342 5 298 265 265 271 268 258 242
253 258 262 268 278 264 257 243 232 238 245 221 268 207 240 259 252 251 254 253 254 253 260 261 257 264 271 276 276 284 282 268 280 280 283 290 303 332 346 292 303 264 251 247
247 255 264 271 271 262 247 241 236 235 238 231 233 238 253 257 258 254 253 261 260 257 261 265 262 259 272 275 276 276 276 277 274 278 278 275 288 313 315 311 311 327 266 250
246 256 267 278 262 252 242 249 235 233 237 243 237 236 253 257 249 254 256 258 263 263 265 264 265 267 265 267 273 274 277 270 270 269 274 280 283 295 290 304 329 321 323 287
243 256 267 271 253 246 243 242 240 245 248 246 248 251 248 260 257 254 253 256 261 265 265 265 268 270 268 264 267 269 268 264 267 265 264 262 269 283 295 295 292 306 299 317
242 251 263 261 250 247 247 237 242 240 246 237 257 255 262 261 263 256 256 258 258 259 263 266 269 268 265 260 260 262 261 258 259 261 262 261 261 270 274 286 291 280 300 274
242 252 256 253 252 247 243 237 212 235 233 246 256 265 265 270 271 271 263 260 263 266 264 263 265 263 260 256 256 253 256 256 255 260 261 261 262 259 257 263 279 291 296 285
243 247 251 253 251 251 244 241 232 238 243 246 251 255 268 273 272 277 275 271 266 264 263 262 262 263 260 259 256 256 254 255 254 254 258 260 263 263 259 259 263 276 276 278
242 245 251 252 252 251 251 241 239 244 251 256 262 262 245 267 271 275 275 273 272 272 271 268 265 265 264 263 263 263 261 258 257 255 254 256 259 261 261 256 257 265 266 261
245 250 250 252 251 247 249 244 243 243 248 257 263 272 265 273 273 275 276 275 276 276 275 272 271 271 270 269 269 268 266 265 263 259 258 258 261 263 262 257 249 252 254 248
244 248 249 252 250 250 249 248 243 246 255 266 278 289 284 282 279 277 275 275 275 275 273 272 272 272 273 273 272 272 272 270 270 268 264 261 260 261 260 258 257 248 248 250
243 244 245 243 245 247 247 249 251 257 263 268 276 267 273 283 282 278 276 275 277 275 275 276 276 277 277 277 278 279 279 278 277 275 272 270 267 262 260 260 256 252 250 246
239 240 241 240 240 243 244 248 254 258 264 268 268 261 263 281 278 277 278 278 277 277 277 277 278 278 278 281 282 284 287 288 288 287 285 282 278 274 268 259 254 252 249 245
238 239 240 242 241 243 246 249 254 258 261 265 270 274 282 276 279 277 276 277 280 284 279 278 277 279 281 283 284 287 288 290 292 290 288 289 287 285 274 268 263 256 252 246
237 239 241 242 243 245 248 251 256 261 265 268 268 274 270 270 272 275 276 280 282 282 278 273 276 280 281 279 278 283 283 287 288 288 290 291 290 289 282 270 263 256 253 246
238 239 241 244 246 248 250 255 260 265 269 273 275 271 270 270 272 274 274 277 278 280 282 284 279 276 273 270 274 279 281 285 289 291 291 289 289 287 286 284 272 261 253 248
239 242 243 247 249 250 258 262 267 269 272 273 273 273 271 274 275 276 278 275 278 283 285 281 277 272 273 273 275 276 279 282 283 287 286 286 290 291 286 280 280 276 268 258
242 243 246 249 254 259 260 266 270 264 268 274 271 270 273 273 273 276 278 278 281 281 281 277 274 273 271 272 273 275 278 281 280 281 280 281 285 287 284 280 277 276 273 272
244 245 246 248 257 258 259 267 241 270 273 271 271 274 273 274 275 276 283 287 281 281 278 276 277 277 279 280 279 280 284 286 286 286 286 284 286 286 284 281 279 275 272 270
244 245 244 243 236 262 268 254 251 264 269 270 271 273 276 277 281 284 284 287 294 292 283 280 277 279 280 283 285 286 287 286 287 287 287 287 286 285 284 283 280 277 274 271
240 242 246 246 249 243 213 241 247 264 271 268 269 271 276 278 280 284 286 287 292 292 290 286 285 284 289 291 291 292 292 291 291 291 289 288 287 285 283 280 278 275 274 274
243 241 241 242 246 238 232 238 252 267 264 266 267 271 275 277 282 287 282 291 288 290 291 292 293 293 296 297 295 295 294 293 293 292 290 289 287 285 283 280 279 278 276 275
238 237 237 237 228 230 244 247 252 257 262 265 266 271 279 281 283 286 285 285 286 288 291 293 297 299 297 297 300 301 301 299 297 295 293 291 288 286 284 283 281 280 278 277
234 236 238 240 244 248 250 251 257 262 262 266 268 268 274 277 279 279 278 281 287 291 296 301 301 301 304 305 304 303 302 302 301 300 298 296 294 291 288 285 283 282 282 280
Height
10950 10950 10951 10954 10955 10957 10961 10956 10958 10960 10963 10964 10963 10963 10964 10965 10964 10963 10963 10964 10963 10963 10962 10961 10962 10963 10964 10966 10966 10966 10966 10965 10961 10960 10960 10960 10960 10962 10963 10962 10959 10960 10960 10961
10945 10945 10946 10948 10949 10950 10952 10952 10953 10955 10955 10956 10960 10961 10961 10961 10961 10961 10961 10962 10961 10958 10958 10958 10960 10960 10961 10963 10963 10963 10963 10962 10961 10960 10959 10959 10959 10959 10958 10957 10958 10957 10956 10957
10939 10941 10944 10945 10945 10946 10946 10948 10950 10948 10950 10953 10955 10957 10956 10957 10957 10958 10959 10959 10959 10957 10957 10958 10959 10958 10957 10958 10958 10959 10961 10959 10958 10958 10957 10959 10959 10957 10956 10956 10955 10954 10953 10953
10935 10937 10939 10942 10941 10941 10944 10944 10944 10945 10948 10949 10950 10953 10951 10951 10954 10955 10955 10955 10955 10955 10955 10955 10957 10956 10955 10954 10956 10955 10956 10956 10955 10954 10955 10955 10955 10955 10955 10954 10954 10952 10950 10949
10932 10932 10934 10937 10937 10937 10941 10940 10941 10942 10944 10946 10947 10950 10942 10950 10952 10952 10951 10951 10951 10953 10952 10953 10952 10954 10953 10952 10952 10951 10951 10952 10952 10951 10952 10952 10953 10953 10953 10953 10949 10949 10950 10950
10927 10929 10930 10931 10931 10931 10932 10935 10937 10938 10941 10940 10942 10944 10938 10947 10946 10947 10948 10948 10946 10949 10948 10949 10948 10948 10949 10948 10947 10946 10947 10948 10948 10947 10948 10948 10950 10951 10950 10950 10948 10949 10948 10947
10923 10923 10925 10926 10926 10926 10927 10930 10933 10937 10938 10939 10937 10935 10942 10938 10941 10942 10942 10942 10944 10944 10944 10944 10943 10943 10943 10943 10941 10942 10942 10942 10942 10942 10942 10943 10945 10945 10945 10945 10945 10945 10944 10945
10917 10920 10922 10921 10920 10922 10923 10926 10931 10933 10935 10936 10933 10930 10936 10934 10935 10935 10935 10935 10937 10939 10939 10939 10938 10938 10937 10937 10936 10936 10935 10935 10935 10935 10936 10937 10938 10940 10939 10940 10940 10941 10943 10941
10913 10914 10916 10916 10917 10917 10919 10923 10928 10927 10930 10927 10925 10924 10928 10923 10926 10928 10929 10930 10931 10932 10932 10932 10932 10931 10930 10931 10930 10929 10928 10927 10928 10928 10929 10930 10931 10933 10934 10935 10936 10936 10938 10937
10907 10909 10910 10910 10912 10913 10914 10916 10918 10919 10918 10920 10921 10921 10921 10923 10918 10921 10922 10922 10923 10923 10923 10923 10923 10923 10921 10922 10922 10921 10921 10920 10921 10921 10921 10922 10924 10925 10928 10928 10928 10928 10930 10931
10899 10902 10904 10904 10905 10907 10910 10911 10912 10913 10913 10914 10915 10918 10924 10919 10915 10913 10913 10913 10913 10912 10913 10913 10913 10913 10913 10913 10912 10912 10912 10912 10912 10913 10912 10912 10912 10915 10918 10919 10920 10918 10921 10922
10891 10894 10897 10897 10898 10902 10905 10907 10908 10908 10909 10909 10911 10913 10916 10910 10908 10907 10905 10904 10904 10903 10903 10903 10902 10902 10902 10901 10901 10900 10900 10901 10901 10901 10900 10902 10902 10905 10907 10910 10911 10911 10911 10915
10883 10885 10888 10890 10891 10896 10900 10902 10901 10902 10905 10907 10906 10908 10908 10905 10899 10899 10897 10895 10894 10894 10893 10892 10891 10891 10890 10890 10889 10889 10889 10888 10888 10888 10890 10891 10893 10893 10893 10895 10897 10899 10900 10900
10875 10876 10879 10881 10884 10888 10890 10893 10895 10897 10900 10902 10902 10905 10900 10898 10894 10891 10889 10887 10886 10884 10883 10883 10881 10880 10879 10878 10877 10877 10876 10875 10875 10874 10874 10873 10874 10876 10876 10877 10878 10882 10884 10885
10866 10867 10868 10870 10876 10878 10881 10884 10886 10890 10893 10896 10893 10895 10894 10888 10886 10883 10881 10879 10876 10876 10876 10874 10873 10871 10870 10868 10867 10865 10864 10862 10860 10858 10857 10856 10857 10858 10859 10860 10860 10862 10864 10865
10856 10857 10858 10861 10865 10868 10872 10876 10878 10882 10885 10889 10885 10882 10882 10882 10876 10876 10873 10870 10869 10869 10868 10867 10866 10864 10862 10861 10858 10857 10854 10851 10849 10846 10844 10842 10841 10840 10840 10841 10843 10844 10844 10844
10846 10847 10850 10852 10855 10860 10864 10866 10871 10874 10875 10878 10878 10881 10875 10874 10871 10868 10864 10862 10861 10860 10859 10859 10858 10856 10854 10853 10851 10849 10847 10843 10839 10836 10833 10830 10828 10826 10825 10824 10823 10823 10825 10826
10835 10839 10840 10842 10846 10853 10854 10859 10864 10866 10865 10865 10866 10869 10865 10864 10862 10859 10857 10854 10852 10851 10850 10849 10849 10848 10845 10843 10842 10840 10837 10833 10829 10826 10822 10819 10816 10813 10810 10808 10807 10806 10805 10805
10826 10828 10832 10836 10840 10842 10852 10853 10857 10858 10855 10857 10853 10856 10855 10853 10853 10851 10849 10846 10844 10843 10841 10840 10840 10838 10837 10835 10832 10828 10824 10821 10817 10813 10809 10805 10800 10797 10795 10792 10789 10789 10789 10789
10816 10818 10824 10830 10835 10841 10843 10843 10842 10846 10845 10851 10839 10847 10844 10845 10842 10843 10841 10839 10835 10833 10831 10830 10830 10828 10826 10823 10820 10816 10811 10807 10802 10798 10794 10789 10785 10781 10775 10772 10769 10768 10767 10766
10809 10810 10817 10823 10831 10826 10834 10842 10831 10831 10836 10838 10832 10835 10833 10833 10831 10833 10830 10828 10826 10824 10822 10819 10817 10814 10811 10807 10803 10798 10794 10789 10784 10781 10777 10773 10768 10763 10755 10753 10748 10746 10743 10742
10799 10800 10808 10812 10821 10814 10833 10831 10825 10825 10825 10826 10825 10824 10823 10821 10820 10820 10819 10817 10815 10813 10811 10809 10805 10801 10796 10791 10787 10783 10778 10774 10768 10763 10758 10753 10749 10745 10739 10734 10730 10726 10723 10722
10778 10787 10793 10807 10808 10822 10818 10804 10809 10815 10815 10814 10814 10814 10813 10811 10810 10809 10807 10806 10804 10802 10799 10795 10791 10786 10781 10776 10772 10767 10761 10756 10750 10745 10739 10733 10728 10722 10718 10714 10710 10706 10703 10699
10772 10778 10782 10791 10795 10806 10803 10805 10803 10801 10807 10804 10806 10805 10804 10802 10800 10799 10797 10795 10792 10789 10786 10782 10777 10772 10767 10763 10757 10751 10745 10738 10731 10724 10717 10711 10706 10700 10696 10692 10688 10685 10683 10679
10756 10767 10769 10779 10787 10785 10790 10793 10796 10795 10796 10797 10796 10795 10795 10793 10791 10789 10786 10784 10781 10777 10773 10769 10765 10759 10753 10747 10739 10731 10722 10715 10708 10701 10696 10690 10685 10680 10676 10672 10668 10665 10662 10658
10748 10753 10760 10767 10775 10781 10783 10783 10786 10787 10786 10785 10785 10786 10785 10784 10781 10778 10775 10772 10769 10765 10761 10757 10751 10745 10737 10729 10721 10713 10705 10698 10691 10685 10679 10673 10667 10664 10659 10654 10650 10646 10641 10638